Location: Alsip
(41.6689°N, 87.7387°W)
Time: 15:13:16
(UTC+00:00)

Lacrosse 5 rocket - Pass Details

Date: 14 July 2020
Orbit: 465 x 632 km, 57.0° (Epoch: 12 August)

Event Time Altitude Azimuth Distance (km) Brightness Sun altitude
Rises 02:53:14 0° 321° (NW) 2,761 6.9 -13.8°
Reaches altitude 10° 02:56:13 10° 342° (NNW) 1,824 5.0 -14.2°
Maximum altitude 02:58:55 17° 23° (NNE) 1,416 3.7 -14.5°
Drops below altitude 10° 03:01:31 10° 64° (ENE) 1,753 3.7 -14.8°
Enters shadow 03:02:37 - 75° (ENE) 2,054 4.0 -15.0°
